Regional Weather Roundup
Issued by NWS Cleveland, OH

Home | Current Version | Previous Version | Text Only | Print | Product List | Glossary On
Versions: 1 2 3 4 5 6 7 8 9 10 11 12 13 14 15 16 17 18 19 20 21 22 23 24 25 26 27 28 29 30 31 32 33 34 35 36 37 38 39 40 41 42 43 44 45 46 47 48 49 50
000
ASUS41 KCLE 111112
RWRCLE
OHIO REGIONAL WEATHER ROUNDUP
NATIONAL WEATHER SERVICE WILMINGTON, OH
600 AM EST SUN DEC 11 2016

NOTE: "FAIR" INDICATES FEW OR NO CLOUDS BELOW 12,000 FEET WITH NO
SIGNIFICANT WEATHER AND/OR OBSTRUCTIONS TO VISIBILITY.

OHZ001>008-015>018-024>027-034-035-043-044-111200-
   NORTHWEST OHIO

CITY           SKY/WX    TMP DP  RH WIND       PRES   REMARKS
DEFIANCE       LGT SNOW  26  21  81 SE6       30.29F WCI  19
FINDLAY        LGT SNOW  25  20  81 SE8       30.30F WCI  16
TOLEDO EXPRESS LGT SNOW  23  23 100 SE5       30.30F FOG     WCI  17
TOLEDO EXEC    LGT SNOW  25  23  92 SE8       30.33F FOG     WCI  16
LIMA           CLOUDY    24  22  91 SE9       30.28F WCI  14
$$

OHZ009>014-019>023-028>033-038-089-111200-
   NORTHEAST OHIO

CITY           SKY/WX    TMP DP  RH WIND       PRES   REMARKS
CLE-HOPKINS    LGT SNOW  25  20  81 S7        30.40S WCI  17
CLE-LAKEFRONT  LGT SNOW  25  21  85 S10       30.38F FOG     WCI  15
CUY CO. ARPT   NOT AVBL
LORAIN-ELYRIA  LGT SNOW  23  19  85 S8        30.37F FOG     WCI  14
ASHTABULA      LGT SNOW  22  20  92 S7        30.39S FOG     WCI  13
AKRON-CANTON   LGT SNOW  23  19  85 S9        30.35F FOG     WCI  13
WOOSTER        LGT SNOW  22  19  89 S6        30.35F FOG     WCI  14
MANSFIELD      LGT SNOW  22  20  92 SE9       30.32S FOG     WCI  12
YOUNGSTOWN     LGT SNOW  22  19  89 SE7       30.37F WCI  13
$$

OHZ042-051>053-060>062-070>072-077>081-111200-
  SOUTHWEST OHIO

CITY           SKY/WX    TMP DP  RH WIND       PRES   REMARKS
CINC-COVINGTON CLOUDY    30  18  60 SE10      30.28F WCI  21
CINC-LUNKEN    CLOUDY    31  19  61 CALM      30.33F
HAMILTON       CLOUDY    30  20  66 VRB5      30.32F WCI  25
DAYTON         CLOUDY    26  21  81 SE10      30.29F WCI  16
WRIGHT-PAT AFB CLOUDY    27  22  84 SE7       30.31S WCI  19
DAYTON GENERAL CLOUDY    28  18  66 SE10      30.28F WCI  19
WILMINGTON     CLOUDY    27  18  69 SE8       30.30S WCI  19
$$

OHZ036-037-039>041-045>050-054>059-063>069-073>076-082>088-111200-
  CENTRAL AND SOUTHEAST OHIO

CITY           SKY/WX    TMP DP  RH WIND       PRES   REMARKS
COLUMBUS       CLOUDY    25  23  92 E8        30.33F WCI  16
OSU AIRPORT    CLOUDY    25  23  92 SE9       30.32F WCI  15
BOLTON FIELD   CLOUDY    25  22  91 E8        30.33S WCI  16
RICKENBACK AFB   N/A     25  22  91 SE6       30.33S WCI  18
NEWARK         CLOUDY    25  21  85 E8        30.34F WCI  16
MARION         CLOUDY    24  21  88 SE10      30.32F WCI  14
LANCASTER      CLOUDY    25  21  85 E12       30.33F WCI  14
ZANESVILLE     CLOUDY    24  20  84 SE8       30.37F WCI  15
NEW PHILLY     LGT SNOW  23  21  92 SE6       30.40F FOG     WCI  16
$$




USA.gov is the U.S. government's official web portal to all federal, state and local government web resources and services.